Tracking 19562 objects as of 25-Mar-2019
HD Live streaming from Space Station
objects crossing your sky now

FENGYUN 1C DEB

Track FENGYUN 1C DEB now!
10-day predictions


NORAD ID: 30365
Int'l Code: 1999-025ACC
Perigee: 720.2 km
Apogee: 968.9 km
Inclination: 98.7 °
Period: 101.7 minutes
Semi major axis: 7215 km
RCS: 0.026 m2 (small)
Launch date: May 10, 1999
Source: People's Republic of China (PRC)
Launch site: Taiyaun Space Center, China (TSC)

Note: This is SATELLITE DEBRIS
aabbcc
Your satellite tracking list
Your tracking list is empty




NASA's NSSDC Master Catalog

Two Line Element Set (TLE):
1 30365U 99025ACC 19083.62754370  .00000038  00000-0  36210-4 0  9994
2 30365  98.7122 115.6874 0172345 333.2140 148.5540 14.16437558628487
Source of the keplerian elements: AFSPC